Temperature
17 17 17 17 17 17 16 16 16 15 15 15 15 15 15 15 15 15 15 14 14 14 14 14 14 14 13 13 13 13 12 12 12 12 12 12 11 12 12 11 11 11 11
16 16 17 17 17 17 16 16 16 15 15 15 15 15 15 15 15 15 14 14 14 14 14 14 14 13 13 13 13 12 12 12 12 12 11 11 11 12 12 12 12 12 11
16 16 16 16 16 16 16 16 16 16 15 15 15 15 14 14 14 14 14 14 14 14 14 14 13 13 13 13 13 12 12 12 12 12 11 11 11 12 12 12 12 12 11
15 15 15 15 16 16 16 16 15 15 15 15 15 15 14 14 15 14 14 14 14 14 14 13 13 13 13 12 12 12 12 12 12 12 11 11 11 11 11 11 11 11 11
14 14 14 14 14 15 15 15 15 15 15 14 14 14 14 14 14 14 14 14 14 13 13 13 13 13 12 12 12 12 12 12 11 11 11 11 11 10 10 10 11 11 11
13 13 13 13 13 13 14 14 14 14 14 14 14 13 13 13 13 13 13 13 13 13 13 13 12 12 12 12 12 12 11 11 11 11 11 10 10 10 10 10 10 10 10
12 12 12 12 12 12 12 13 13 13 13 13 13 13 13 13 13 13 13 13 13 12 12 12 12 12 12 12 11 11 11 11 11 10 10 10 10 10 9 9 9 9 9
11 11 11 11 11 11 11 11 12 12 12 12 12 12 12 12 12 12 12 12 12 12 12 11 11 11 11 11 11 11 11 10 10 10 10 9 9 9 9 9 8 8 8
11 11 10 10 10 10 10 10 10 11 11 11 11 11 11 11 11 11 11 11 11 11 11 10 10 10 10 10 10 10 10 10 9 9 9 9 9 8 8 8 8 7 7
10 10 10 10 9 9 9 9 9 9 10 10 9 10 10 10 10 10 10 10 10 10 10 10 10 9 9 9 9 9 9 9 9 8 8 8 8 8 8 7 7 7 6
10 10 9 9 9 8 8 8 8 8 8 8 9 9 9 9 9 9 9 9 9 9 9 9 9 9 8 8 8 8 8 8 8 7 7 7 7 7 6 6 6 6 5
10 9 9 8 8 8 8 8 8 8 8 8 8 8 8 8 8 8 8 8 8 8 8 8 8 8 7 7 7 7 7 7 7 7 6 6 6 6 6 5 5 5 5
9 9 8 8 8 7 7 7 7 7 7 7 7 7 7 7 7 7 7 7 7 7 7 7 7 7 7 7 6 6 6 6 6 6 5 5 5 5 5 4 4 4 3
9 9 8 8 7 7 7 6 6 6 6 6 6 6 6 6 6 6 6 6 6 6 6 6 6 6 6 6 6 5 5 5 5 5 4 4 4 4 3 3 3 2 2
9 8 8 7 7 6 6 6 6 5 5 5 5 5 5 5 5 5 5 5 5 5 5 5 5 5 5 4 4 4 4 4 3 3 3 3 2 2 2 2 1 1 1
9 9 8 7 7 6 6 5 5 5 5 5 4 4 4 4 4 4 4 4 4 4 3 3 3 3 3 3 3 3 3 3 2 2 2 1 1 1 1 0 0 0 -0
9 9 8 8 7 6 5 5 4 4 4 4 3 3 3 3 3 3 3 3 3 2 2 2 2 3 2 2 2 2 2 2 1 1 1 1 0 -0 -0 -0 -1 -1 -2
10 9 8 7 6 5 5 4 4 3 3 3 3 3 3 3 2 2 2 2 2 2 2 1 1 2 2 1 1 1 1 1 1 0 -0 -0 -1 -1 -1 -1 -2 -2 -2
9 9 8 7 6 5 4 3 3 3 2 2 2 2 2 2 2 1 1 1 1 1 1 1 1 1 1 0 0 0 0 -0 -0 -1 -1 -1 -2 -2 -2 -2 -3 -3 -3
8 8 7 6 5 4 3 3 2 2 2 2 1 1 1 1 1 1 1 1 0 0 0 0 0 -0 -0 -0 -0 -1 -1 -1 -1 -2 -2 -2 -3 -3 -3 -3 -3 -4 -4
7 6 6 5 4 3 3 2 2 2 1 1 1 1 1 0 0 0 0 0 -0 -0 -0 -0 -0 -1 -1 -1 -1 -1 -1 -2 -2 -2 -2 -3 -3 -4 -4 -4 -4 -5 -5
6 5 5 4 3 3 2 2 1 1 1 1 0 0 0 0 0 -0 -0 -0 -0 -0 -0 -1 -1 -1 -1 -1 -1 -2 -2 -2 -2 -3 -3 -3 -4 -4 -4 -5 -5 -5 -6
5 5 4 3 3 2 2 1 1 1 0 0 0 0 0 0 -0 -0 -0 -0 -0 -1 -1 -1 -1 -1 -1 -2 -2 -2 -2 -3 -3 -3 -4 -4 -4 -5 -5 -5 -5 -6 -6
5 4 3 3 3 2 1 1 1 0 0 0 0 0 0 0 -0 -0 -0 -1 -1 -1 -1 -1 -1 -1 -2 -2 -2 -3 -3 -3 -3 -4 -4 -4 -5 -5 -5 -6 -6 -6 -6
4 4 3 3 3 2 1 1 0 0 0 0 0 -0 -0 -0 -0 -0 -1 -1 -1 -1 -1 -1 -1 -2 -2 -2 -2 -3 -3 -3 -4 -4 -4 -5 -5 -5 -6 -6 -6 -6 -7
4 4 3 3 2 2 2 1 1 0 0 0 0 0 0 -0 -0 -0 -1 -1 -1 -1 -1 -1 -2 -2 -2 -2 -3 -3 -3 -4 -4 -4 -4 -5 -5 -6 -6 -6 -6 -6 -7
Wind_Speed
4 2 3 5 5 4 5 5 6 5 5 4 4 4 5 4 4 5 9 11 12 13 11 7 7 8 8 9 9 7 7 6 4 3 3 4 4 6 6 7 8 12 17
3 1 2 3 5 5 4 4 4 4 4 4 4 3 3 3 4 3 6 10 10 11 10 8 7 7 8 9 9 8 5 5 6 5 3 4 4 5 7 6 7 9 12
7 5 4 3 4 4 3 3 3 3 3 3 2 1 1 0 1 3 4 5 8 9 10 9 7 7 8 9 10 10 9 8 7 6 5 5 7 4 3 5 6 6 6
7 6 6 4 4 3 2 3 3 3 2 2 3 3 4 4 4 3 3 3 5 6 8 8 8 7 7 8 9 9 9 8 7 5 6 5 4 5 4 3 3 5 7
8 8 7 6 5 4 4 3 4 4 3 3 3 3 3 3 2 1 2 3 3 4 5 6 5 6 7 8 8 8 9 8 8 7 5 6 4 4 5 6 3 3 4
8 7 6 6 5 4 4 4 5 4 4 4 3 2 2 1 0 1 2 2 2 2 3 4 4 4 5 6 7 7 8 8 9 8 6 6 5 6 7 9 6 4 2
9 8 8 6 5 5 5 5 5 5 4 5 4 3 2 1 1 1 1 1 1 2 3 2 3 3 4 4 5 5 6 6 7 8 7 7 7 4 4 6 5 4 2
9 9 8 7 6 6 5 5 5 5 5 5 4 4 4 2 1 1 1 1 1 1 2 2 2 2 2 3 3 3 4 3 4 5 6 5 5 4 4 4 4 4 3
9 9 8 7 6 6 5 5 6 5 5 5 5 5 5 4 4 3 3 2 2 2 3 3 3 3 3 3 2 1 2 1 1 1 1 1 0 0 1 2 3 4 5
8 8 7 6 6 6 6 6 6 6 5 6 5 5 5 5 5 5 5 5 5 5 5 5 5 5 5 5 4 3 3 4 4 3 4 3 3 3 2 1 0 1 3
9 7 6 6 6 6 6 6 6 6 5 5 5 6 6 6 6 6 6 5 6 6 6 6 6 7 7 6 6 6 6 6 6 6 6 6 5 4 4 3 2 2 0
8 8 7 7 6 6 6 6 5 5 5 5 6 6 6 6 7 7 7 6 7 7 7 7 8 8 8 8 8 8 8 8 7 7 7 7 5 6 5 4 4 3 3
8 7 7 7 7 6 6 6 5 5 5 5 6 6 6 7 7 7 7 7 8 8 8 8 9 9 8 9 9 9 9 9 9 8 8 7 7 7 6 6 5 4 4
9 8 7 7 6 6 6 6 5 5 5 6 6 6 6 6 7 7 7 7 8 8 8 8 8 8 9 9 9 9 9 10 9 9 8 7 7 6 6 6 5 5 5
9 9 9 7 7 7 6 6 6 5 6 6 6 6 6 6 7 7 7 8 8 8 8 8 8 7 7 8 9 9 9 9 9 9 8 8 8 8 7 5 4 4 4
10 10 9 9 9 8 8 7 6 6 6 7 6 6 6 6 7 7 7 8 8 8 8 8 8 8 8 12 13 10 8 8 8 8 7 7 8 10 10 9 7 5 3
10 11 10 10 10 9 8 8 7 6 7 7 6 6 6 6 6 7 7 7 7 8 8 8 8 8 10 13 13 13 8 7 7 6 5 5 6 7 6 7 9 8 7
10 10 9 9 8 7 7 7 7 7 7 6 6 6 6 6 6 7 7 6 6 6 6 7 7 6 9 12 12 12 8 6 6 5 5 5 4 3 4 4 5 5 5
7 7 8 8 8 9 9 9 8 7 7 6 6 6 6 7 7 7 6 5 6 6 6 5 6 6 6 9 10 9 5 5 5 4 4 3 3 4 5 4 3 4 4
6 7 8 8 9 8 9 9 8 8 7 7 6 6 6 7 7 6 5 5 5 5 5 5 4 5 4 7 8 8 4 4 3 3 4 4 3 4 4 2 1 2 3
6 8 9 8 8 9 9 9 8 7 7 7 7 7 6 6 6 5 5 5 5 5 5 4 3 3 3 5 6 6 3 3 2 2 2 3 4 5 5 2 1 3 2
7 8 8 7 7 8 9 9 8 7 8 8 7 7 7 6 6 6 5 5 6 5 4 3 2 2 2 3 3 4 4 3 2 0 2 3 5 5 5 3 4 5 3
7 7 8 8 7 7 9 9 8 8 9 8 8 7 7 5 6 6 6 5 4 4 4 3 2 1 1 2 3 3 3 2 1 1 4 4 5 4 4 5 5 3 2
7 7 8 9 8 7 8 8 9 9 9 9 8 7 7 6 5 4 5 5 5 5 4 4 3 2 1 1 1 1 1 2 2 2 3 5 5 3 3 3 3 2 2
7 8 9 9 9 8 8 9 10 10 9 9 8 7 6 6 5 4 4 5 5 6 6 5 4 4 4 4 4 3 2 3 3 2 0 1 2 2 2 2 2 2 2
7 8 9 9 9 9 9 9 10 11 10 9 8 7 6 5 5 5 3 4 5 6 7 7 6 5 5 5 4 4 4 5 4 1 1 1 2 2 3 3 3 3 3
Wind_Direction
231 195 174 164 153 150 155 168 175 186 180 180 190 198 211 211 210 213 215 215 217 216 212 214 209 206 212 214 211 210 214 219 187 192 257 277 251 238 229 216 214 216 216
199 151 122 120 128 136 138 142 154 164 178 194 195 195 199 212 219 221 226 225 224 224 220 215 216 214 218 220 216 210 212 213 185 181 200 268 291 258 233 218 219 219 215
182 164 129 114 114 117 127 135 140 145 163 176 162 142 141 196 225 235 238 237 236 235 231 227 221 220 218 224 222 215 213 221 210 196 182 199 234 260 272 238 230 221 215
167 156 143 127 118 120 107 107 119 116 116 131 139 158 187 211 226 236 245 256 246 244 242 237 231 228 226 226 227 222 220 218 221 217 221 216 187 200 259 272 247 229 223
165 156 147 137 121 104 89 82 86 80 78 96 133 156 185 219 247 261 264 263 266 262 258 249 242 241 237 236 235 229 223 221 223 213 208 226 231 217 226 259 260 258 241
156 143 131 119 103 87 78 78 81 68 60 74 86 127 161 190 220 278 274 275 276 277 282 272 258 251 249 247 245 240 233 230 228 224 210 202 205 210 217 239 240 239 252
150 143 136 125 112 95 81 79 82 65 53 61 60 63 88 121 166 244 266 295 312 313 314 300 279 270 264 260 253 244 242 236 233 231 229 226 229 213 212 232 240 235 238
150 146 142 133 121 106 93 88 84 70 55 60 58 50 49 57 53 43 43 29 334 312 327 334 332 321 309 289 267 251 250 248 244 244 238 234 236 229 220 216 219 239 241
152 147 141 133 126 112 100 98 93 77 59 57 64 55 46 51 54 48 45 36 14 8 10 14 19 13 8 357 348 340 315 315 317 300 278 244 253 214 222 216 207 219 244
147 144 142 138 129 118 104 91 88 81 64 57 57 64 50 49 53 57 50 42 31 30 33 34 35 34 32 35 46 44 39 57 48 47 61 55 45 44 39 38 32 228 233
158 154 148 139 128 117 108 99 89 81 69 63 62 60 52 51 54 55 47 45 42 41 44 44 48 46 41 40 52 54 56 67 62 58 66 63 57 58 49 50 51 42 76
159 154 147 138 131 125 117 109 101 92 82 77 73 66 59 58 57 53 46 48 51 48 49 52 56 54 50 49 56 59 58 65 68 66 72 70 70 65 55 58 56 50 41
155 151 148 148 146 140 130 120 112 106 97 90 82 72 64 64 62 57 53 56 59 56 55 57 60 58 57 58 60 65 65 66 65 64 69 69 73 70 63 61 58 50 49
167 163 163 161 156 148 141 131 122 117 109 98 90 81 72 70 69 65 61 60 62 63 61 62 64 64 64 64 67 71 71 71 67 65 66 66 71 77 74 68 60 58 57
179 179 175 170 161 152 147 138 130 122 115 107 99 91 83 78 75 71 67 64 65 66 64 67 67 69 70 70 75 74 77 76 73 64 59 63 74 82 81 81 71 66 62
192 187 180 173 170 165 159 147 137 130 121 114 109 103 96 88 84 80 78 74 69 66 66 65 66 67 72 79 82 84 76 75 72 67 56 55 54 60 64 71 71 72 73
195 188 184 180 175 170 161 154 144 132 123 119 116 113 109 102 97 96 89 82 78 75 70 65 66 69 76 81 84 86 83 78 74 68 60 58 54 55 46 50 46 40 43
192 186 176 168 161 156 149 141 137 135 131 129 128 127 124 118 111 104 98 91 85 81 78 70 63 65 77 84 87 89 77 74 69 67 70 66 39 57 68 59 42 24 14
180 172 163 155 152 153 149 141 139 139 140 142 143 141 137 133 127 118 111 105 101 92 84 78 68 63 69 85 90 90 75 70 59 53 60 72 34 34 55 65 39 14 349
140 143 141 141 150 154 149 147 151 154 157 154 149 144 143 140 135 129 120 112 111 108 99 84 69 66 57 81 88 92 85 79 60 41 25 21 23 13 31 92 54 339 311
139 141 145 152 159 155 152 155 159 165 157 147 144 143 142 141 139 132 126 125 119 112 105 95 72 58 58 70 81 91 100 103 87 58 4 331 347 349 346 354 237 279 299
145 148 151 155 157 157 156 160 167 158 147 147 148 146 146 149 147 140 136 133 132 129 128 121 101 33 17 44 68 74 91 114 116 134 283 291 319 333 337 334 307 320 357
164 161 158 158 162 166 164 167 167 156 152 152 154 154 154 152 150 151 151 148 149 151 160 162 168 200 335 352 39 48 47 70 128 265 297 309 322 341 340 326 337 10 19
177 169 165 171 178 177 174 170 164 162 159 162 164 163 161 157 156 159 163 165 171 173 178 184 189 198 221 249 281 331 341 342 327 314 322 342 354 6 349 349 2 0 307
184 178 181 186 186 180 178 173 169 167 168 170 172 172 170 164 163 166 177 180 195 189 185 193 188 188 213 231 225 219 231 243 253 264 306 350 349 347 338 331 324 323 329
185 186 190 190 187 183 183 180 177 175 173 176 179 177 170 165 162 156 153 196 194 203 203 196 192 209 218 227 240 258 272 281 282 273 246 282 292 292 297 303 306 303 302
Height
1508 1511 1513 1515 1517 1519 1521 1523 1525 1527 1529 1531 1532 1533 1535 1537 1538 1539 1541 1542 1543 1544 1545 1545 1546 1547 1547 1548 1548 1549 1549 1549 1550 1550 1550 1549 1549 1549 1549 1549 1548 1548 1549
1504 1507 1509 1511 1513 1515 1517 1519 1521 1523 1525 1526 1528 1530 1531 1533 1534 1536 1536 1537 1538 1539 1540 1541 1541 1542 1542 1543 1543 1544 1544 1544 1545 1545 1545 1543 1543 1541 1542 1542 1542 1542 1542
1500 1503 1505 1508 1510 1512 1514 1516 1517 1519 1521 1522 1524 1526 1527 1528 1530 1530 1531 1533 1533 1534 1535 1535 1536 1536 1537 1537 1537 1538 1538 1538 1539 1540 1540 1538 1535 1536 1535 1535 1535 1535 1535
1497 1500 1502 1504 1506 1508 1510 1512 1514 1515 1517 1518 1519 1521 1522 1523 1524 1525 1526 1528 1528 1529 1529 1530 1530 1530 1531 1531 1531 1532 1532 1532 1532 1532 1532 1532 1531 1531 1528 1529 1529 1529 1529
1494 1496 1499 1501 1503 1505 1506 1508 1510 1511 1512 1514 1515 1516 1517 1518 1519 1520 1521 1522 1522 1523 1523 1524 1524 1524 1524 1524 1525 1525 1525 1525 1525 1525 1525 1525 1525 1524 1524 1522 1522 1522 1522
1491 1494 1496 1498 1500 1501 1503 1505 1506 1507 1508 1509 1510 1511 1512 1513 1514 1515 1515 1516 1517 1517 1517 1517 1517 1518 1518 1518 1518 1518 1519 1518 1518 1519 1518 1519 1518 1517 1517 1516 1514 1514 1515
1488 1490 1493 1495 1497 1498 1500 1501 1502 1503 1504 1505 1506 1507 1508 1509 1509 1510 1510 1510 1511 1511 1511 1511 1511 1511 1511 1511 1511 1511 1512 1512 1512 1512 1512 1512 1511 1511 1511 1510 1508 1507 1507
1485 1488 1491 1493 1494 1496 1497 1498 1499 1500 1501 1502 1502 1503 1503 1504 1504 1505 1505 1505 1505 1505 1505 1505 1505 1505 1505 1505 1505 1505 1505 1505 1505 1505 1505 1505 1505 1505 1505 1504 1504 1502 1500
1483 1486 1489 1491 1492 1494 1495 1496 1496 1497 1498 1498 1499 1499 1499 1500 1500 1500 1500 1500 1500 1500 1500 1499 1499 1499 1499 1498 1498 1498 1498 1499 1499 1499 1499 1499 1499 1499 1499 1499 1498 1498 1495
1482 1485 1487 1489 1491 1492 1492 1493 1494 1494 1495 1495 1495 1495 1496 1496 1496 1496 1496 1496 1495 1495 1495 1495 1494 1494 1493 1493 1493 1493 1493 1493 1493 1493 1493 1493 1493 1493 1493 1493 1493 1493 1492
1481 1484 1486 1488 1489 1490 1490 1491 1492 1492 1492 1492 1492 1493 1493 1493 1492 1492 1492 1492 1492 1491 1491 1490 1490 1490 1489 1489 1489 1488 1488 1488 1488 1488 1488 1488 1488 1488 1488 1488 1488 1487 1487
1480 1483 1485 1486 1487 1488 1488 1489 1489 1490 1490 1490 1490 1490 1490 1490 1490 1489 1489 1489 1488 1488 1488 1487 1487 1486 1486 1486 1485 1485 1485 1485 1485 1485 1485 1485 1485 1484 1484 1484 1484 1483 1483
1479 1481 1483 1484 1485 1485 1486 1486 1487 1487 1487 1487 1487 1487 1487 1487 1487 1486 1486 1486 1486 1485 1485 1484 1484 1484 1483 1483 1483 1482 1482 1482 1482 1482 1482 1481 1481 1481 1481 1481 1480 1480 1480
1477 1479 1480 1482 1483 1483 1484 1484 1484 1484 1485 1485 1485 1485 1484 1484 1484 1484 1484 1484 1483 1483 1483 1482 1482 1481 1481 1481 1480 1480 1480 1480 1479 1479 1479 1479 1479 1479 1478 1478 1478 1478 1477
1475 1477 1478 1479 1480 1481 1481 1482 1482 1482 1482 1482 1482 1482 1482 1482 1482 1482 1482 1482 1482 1481 1481 1481 1480 1480 1479 1479 1479 1479 1478 1478 1478 1478 1478 1478 1478 1477 1477 1477 1476 1476 1476
1472 1474 1475 1476 1477 1478 1479 1479 1479 1479 1479 1480 1480 1480 1480 1480 1480 1481 1481 1481 1481 1481 1481 1480 1480 1479 1479 1479 1478 1478 1478 1478 1478 1477 1477 1477 1477 1477 1476 1476 1475 1475 1474
1469 1470 1472 1473 1474 1475 1476 1476 1477 1477 1477 1477 1478 1478 1478 1479 1479 1479 1480 1480 1480 1481 1481 1480 1480 1480 1479 1479 1479 1479 1479 1478 1478 1478 1477 1477 1477 1476 1476 1475 1474 1473 1473
1466 1467 1469 1470 1471 1472 1473 1474 1474 1474 1475 1476 1476 1476 1477 1477 1478 1479 1479 1480 1480 1481 1481 1481 1480 1480 1480 1480 1479 1479 1479 1479 1478 1478 1477 1476 1476 1475 1474 1473 1473 1472 1471
1463 1465 1466 1467 1468 1469 1470 1471 1471 1472 1473 1474 1474 1475 1476 1476 1477 1478 1479 1480 1481 1481 1481 1481 1481 1481 1480 1480 1480 1480 1479 1478 1478 1477 1476 1475 1475 1474 1473 1472 1471 1470 1469
1461 1462 1463 1464 1465 1466 1467 1468 1469 1470 1471 1472 1473 1474 1475 1476 1477 1478 1479 1480 1481 1481 1482 1481 1481 1481 1481 1480 1480 1479 1479 1478 1477 1476 1475 1474 1473 1472 1471 1470 1469 1468 1467
1458 1459 1460 1461 1463 1464 1464 1465 1467 1468 1469 1470 1471 1473 1474 1476 1477 1478 1479 1480 1481 1481 1482 1482 1482 1481 1481 1480 1480 1479 1478 1477 1476 1475 1474 1473 1472 1471 1470 1468 1467 1466 1465
1455 1456 1458 1459 1460 1461 1462 1463 1465 1466 1468 1469 1470 1472 1474 1475 1477 1478 1479 1480 1481 1481 1481 1481 1481 1481 1480 1480 1479 1478 1477 1476 1475 1474 1472 1471 1470 1469 1468 1467 1466 1465 1464
1453 1454 1455 1456 1457 1459 1460 1461 1463 1465 1466 1468 1469 1471 1473 1475 1476 1478 1479 1479 1480 1480 1481 1481 1480 1480 1479 1479 1478 1477 1476 1474 1473 1472 1471 1469 1468 1467 1466 1465 1464 1462 1461
1451 1452 1453 1454 1455 1456 1458 1459 1461 1463 1465 1466 1468 1470 1472 1474 1475 1477 1478 1479 1479 1479 1479 1479 1479 1478 1478 1477 1476 1475 1474 1473 1471 1470 1469 1467 1466 1465 1464 1463 1461 1460 1459
1448 1449 1450 1451 1452 1454 1455 1457 1459 1461 1463 1465 1467 1469 1471 1473 1474 1475 1476 1477 1478 1478 1478 1478 1477 1477 1476 1475 1474 1473 1472 1470 1469 1468 1467 1465 1464 1463 1461 1460 1459 1457 1456
1446 1446 1447 1448 1449 1451 1452 1454 1456 1458 1461 1463 1465 1467 1469 1471 1472 1474 1475 1475 1476 1476 1476 1476 1475 1475 1474 1473 1472 1471 1469 1468 1467 1465 1464 1462 1461 1460 1458 1457 1455 1454 1452